Home > Weather > Redmond > Past weeks

Flag for USA Past Weather in Redmond, Washington, USA — Yesterday and Last 2 Weeks

Now
67 °F

Partly sunny.


Feels Like: 67 °F
Forecast: 57 / 74 °F
Wind: 6 mph from West

Location: Seattle Boeing Field

Current Time: Jun 30, 2016 at 2:30:41 PM

Latest Report: Jun 30, 2016 at 1:53 PM


Visibility: 10 mi

Pressure: 30.22 "Hg

Humidity: 66%

Dew Point: 55 °F

Location of RedmondLocation

Past Weather in Redmond — Graph

°F

Redmond Temperature Yesterday

Maximum temperature yesterday: 73 °F (at 5:53 PM)
Minimum temperature yesterday: 57 °F (at 4:53 AM)
Average temperature yesterday: 63 °F

High & Low Weather Summary for the Past Weeks

 TemperatureHumidityPressure
High84 °F (Jun 27, 3:53 PM)97% (Jun 23, 7:53 AM)30.41 "Hg (Jun 23, 7:53 AM)
Low48 °F (Jun 19, 4:53 AM)31% (Jun 16, 3:53 PM)29.89 "Hg (Jun 15, 4:53 PM)
Average63 °F69%30.15 "Hg
* Reported Jun 15 12:53 PM — Jun 30 12:53 PM, Redmond, Weather by CustomWeather, © 2016

Note: Actual official high and low records may vary slightly from our data, if they occured in-between our weather recording intervals... More about our weather records

Advertising

Redmond Weather History for the Previous 24 Hours

Scroll right to see more
 ConditionsComfort  
Time TempWeatherWind HumidityBarometerVisibility
12:53 PM
Thu, Jun 30
66 °FBroken clouds.3 mph68%30.23 "Hg10 mi
11:53 AM64 °FCloudy.3 mph70%30.24 "Hg10 mi
10:53 AM60 °FOvercast.3 mph80%30.25 "Hg10 mi
9:53 AM59 °FOvercast.3 mph84%30.24 "Hg10 mi
8:53 AM59 °FMostly cloudy.5 mph81%30.24 "Hg10 mi
7:53 AM58 °FMostly cloudy.No wind84%30.24 "Hg10 mi
6:53 AM58 °FOvercast.No wind84%30.23 "Hg10 mi
5:53 AM57 °FOvercast.5 mph87%30.22 "Hg10 mi
4:53 AM57 °FMostly cloudy.8 mph87%30.21 "Hg10 mi
3:53 AM58 °FMostly cloudy.7 mph84%30.20 "Hg10 mi
2:53 AM59 °FMostly cloudy.5 mph87%30.20 "Hg10 mi
1:53 AM60 °FPassing clouds.5 mph86%30.19 "Hg10 mi
12:53 AM60 °FClear.6 mph86%30.18 "Hg10 mi
11:53 PM
Wed, Jun 29
63 °FClear.No wind81%30.16 "Hg10 mi
10:53 PM65 °FPassing clouds.3 mph76%30.16 "Hg10 mi
9:53 PM67 °FScattered clouds.6 mph71%30.15 "Hg10 mi
8:53 PM69 °FPassing clouds.6 mph66%30.14 "Hg10 mi
7:53 PM72 °FPassing clouds.5 mph59%30.13 "Hg10 mi
6:53 PM73 °FSunny.7 mph59%30.14 "Hg10 mi
5:53 PM73 °FPassing clouds.6 mph57%30.15 "Hg10 mi
4:53 PM72 °FPassing clouds.6 mph61%30.15 "Hg10 mi
3:53 PM70 °FScattered clouds.3 mph64%30.16 "Hg10 mi
2:53 PM67 °FScattered clouds.6 mph71%30.18 "Hg10 mi
Weather by CustomWeather, © 2016

See weather overviewHow to use our weather pages